Other Surface Observations
Issued by NWS Tucson, AZ

Home | Current Version | Previous Version | Text Only | Print | Product List | Glossary On
Versions: 1 2 3 4 5 6 7 8 9 10 11 12 13 14 15 16 17 18 19 20 21 22 23 24 25 26 27 28 29 30 31 32 33 34 35 36 37 38 39 40 41 42 43 44 45 46 47 48 49 50
000
SXUS55 KTWC 202115
OSOTWC

WEATHER ROUNDUP FOR SOUTHEAST ARIZONA
NATIONAL WEATHER SERVICE TUCSON AZ
215 PM MST FRI JAN 20 2017

AZZ504>506-514-202215-
LOCATION       SKY/WX    TMP DP  RH WIND       PRES   REMARKS
TUCSON         CLOUDY    56  38  50 SW18G24   29.78F
DAVIS-MONTHAN  CLOUDY    55  38  54 SW18G28   29.77F
CHILDRENS PARK N/A      N/A N/A  50 S8                PIMA CO DEQ
ALVERNON/22ND  N/A       56 N/A N/A SW12              PIMA CO DEQ
CHERRY/GLENN   N/A      N/A N/A N/A N/A               PIMA CO DEQ
TANGERINE      N/A       54 N/A N/A SW12              PIMA CO DEQ
CONTL RANCH    N/A       56  40  54 S15               PIMA CO DEQ
GRANT/1ST      N/A       56  37  49 S10               PIMA CO DEQ
CRAYCROFT/22ND N/A       55  37  51 SW15              PIMA CO DEQ
GOLFLINKS/KOLB N/A       55  37  51 SW15              PIMA CO DEQ
AJO/12TH       N/A       56  37  49 S18               PIMA CO DEQ
FAIRGROUNDS    N/A       54 N/A N/A SW20              PIMA CO DEQ
SAGUARO        N/A       54  37  53 SW5G10            *SABINO CYN
SAN CARLOS     N/A       46  45  97 S6G10             *SAN CARLOS
GREEN VALLEY   N/A       54  36  51 S24               PIMA CO DEQ
HORSE CAMP CYN N/A       44  42  93 W9G14             *ARAVAIPA CYN
RINCON MTNS    N/A       28  27  97 SW7G17            *NR MANNING CAMP
$$

AZZ509>511-202215-
LOCATION       SKY/WX    TMP DP  RH WIND       PRES   REMARKS
SAFFORD        CLOUDY    55  38  52 NW6       29.70F
STRAY HORSE    N/A       30  30  99 N/A               *
TRAIL CABIN    N/A       38  34  86 SW7G14            *N OF GRANVILLE
BLACK HILLS    NOT AVBL
DRY LAKE       N/A       32  32  100 S6G12            *NATANES MTNS
NOON CREEK     N/A       49  36  60 NE6G17            *PINALENO MTNS
COLUMBINE      N/A       24  24  99 SW3               *PINALENO MTNS
GUTHRIE        N/A       39  35  84 SW17G31           *SW OF GUTHRIE
$$

AZZ502-503-513-202215-
LOCATION       SKY/WX    TMP DP  RH WIND       PRES   REMARKS
NOGALES        LGT RAIN  47  43  86 S13       29.79S FOG
SELLS          N/A       54  43  66 SW14G23           *
SASABE         N/A       52  40  63 S18G27            *ALTAR VLY
HOPKINS        N/A       32  32  98 SW16G31           *SANTA RITA MTNS
CARR CYN       N/A       43  37  78 NW5G17            *W OF HEREFORD
$$

AZZ507-508-512-202215-
LOCATION       SKY/WX    TMP DP  RH WIND       PRES   REMARKS
SIERRA VISTA   CLOUDY    49  35  59 VRB7G22   29.77F
DOUGLAS        PTSUNNY   52  34  50 SW26G37   29.78F
EMPIRE MTNS    NOT AVBL
MULESHOE RANCH N/A       51  39  63 W7G17             *PRESERVE
HEADQUARTERS   N/A       44  35  70 SW8G21            *CHIRICAHUA MTNS
$$

.............................NOTES.............................
THIS IS AN AUTOMATED COLLECTIVE WITH MINIMAL QUALITY CONTROL.
PIMA CO DEQ SITES HAVE NONSTANDARD WIND SENSOR HEIGHTS.
PIMA CO DEQ SITES DO NOT REPORT WIND GUSTS.
* INDICATES WIND SENSORS LOCATED AT 20 FEET INSTEAD OF 33 FEET.
..............................KEY..............................
SKY/WX - SKY CONDITION/WEATHER
TMP    - TEMPERATURE IN FAHRENHEIT
DP     - DEWPOINT IN FAHRENHEIT
RH     - RELATIVE HUMIDITY IN PERCENT
WIND   - DIRECTION AND SPEED IN MILES PER HOUR (MPH)
VRB    - VARIABLE WIND DIRECTION
PRES   - MEAN SEA LEVEL PRESSURE IN INCHES OF MERCURY
         F - FALLING PRESSURE   R - RISING PRESSURE
         S - STEADY PRESSURE
VSB    - VISIBILITY IN MILES
HX     - HEAT INDEX IN FAHRENHEIT
WCI    - WIND CHILL INDEX IN FAHRENHEIT
N/A    - NOT AVAILABLE
AFB    - AIR FORCE BASE
         DAVIS-MONTHAN IS DAVIS-MONTHAN AIR FORCE BASE
CYN    - CANYON
MTNS   - MOUNTAINS
NCA    - NATIONAL CONSERVATION AREA
NR     - NEAR
VLY    - VALLEY
CONTL  - CONTINENTAL
PIMA CO DEQ - PIMA COUNTY DEPT OF ENVIRONMENTAL QUALITY



USA.gov is the U.S. government's official web portal to all federal, state and local government web resources and services.